FENGYUN 1C DEB

Satellite information

Favourite Embed

Satellite Type and Status

DEBRISDECAYED

Key statistics

Satellite FENGYUN 1C DEB at a glance.

Uptime

9437

Days in orbit

Revolutions

≈ 15.3

Per day

Orbit

SSO

Sun Synchronous Orbit

Inclination

99.1

Latest

Satellite identification and parameters

Extended collection of information and parameters for FENGYUN 1C DEB.

Object identification

Identified? True

Debris? True

Object name: FENGYUN 1C DEB

International designator: 1999-025CFQ

Object number (NORAD): 31765

Object ID (CCSDS): 31765

Country: PEOPLES REPUBLIC OF CHINA (PRC)

Current information (Y/N): Y

RCS size: SMALL

Orbital parameters

Decay date: March 11, 2025

Period: 94.19 minutes

Inclination: 99.0513 deg

SMA: 6857.464 km

Apoapsis: 499.18 km

Periapsis: 459.478 km

RAAN: 272.2885 deg

Eccentricy: 0.0028948

Argument of periapsis: 272.6144 deg

Mean anomaly: 215.2402 deg

Mean motion: 15.28823954 rev/day

Mean motion (dot): 0.01256301 rev/day2

B* drag term: 0.040743 1/REarth

Two-line elements (TLE)

Creation date: Feb. 24, 2025, 4:39 a.m.

Reference frame: TEME

Reference center: EARTH

Epoch: Feb. 23, 2025, 2:51 a.m. UTC

TLE line 0: 0 FENGYUN 1C DEB

TLE line 1: 1 31765U 99025CFQ 25054.11890096 .01256301 00000-0 40743-1 0 9994

TLE line 2: 2 31765 99.0513 272.2885 0028948 272.6144 215.2402 15.28823954899056

Live tracking on map

Satellite FENGYUN 1C DEB has decayed and is no longer in orbit. No tracking available.

In-orbit conjunctions

Satellite FENGYUN 1C DEB has decayed and is no longer in orbit. No conjunctions available.

Associated space launch

Chinese polar orbiting meteorological satellite

FENGYUN 1C DEB was lifted into orbit during the mission ‘Long March 4B | Feng Yun 1C’, on board a Long March 4B space rocket.

The launch took place on May 10, 1999, 1:33 a.m. from Launch Complex 7.

For more information about the launch, click the button.

Launch to space Long March 4B | Feng Yun 1C
Long March 4B | Feng Yun 1C

Agency: N/A

Status: Launch Successful

Launch date: May 10, 1999, 1:33 a.m. UTC

Rocket: Long March 4B

Launch pad: Launch Complex 7

Location: Taiyuan Satellite Launch Center, People's Republic of China

...

Latest news about this satellite

There are no fresh news available about this satellite. Check back as we update our databases every day.


Newsletter sign-up

Weekly statistics, charts and insights to help you stay on top of the space industry.